World > North America > United States > New York

Hourly Pleasantville, NY Regional Weather

Feedback E-mail the Weather

Latest News

Pleasantville, NY Weather Maps

°F °C°F °C
Pleasantville Weather Map
UTC Time: 5/27/2022, 05:39
Your Time:

Pleasantville, NY Regional Weather

Expires:202205270600;;634549
ASUS41 KALY 270510
RWRALY

NEW YORK STATE HOURLY WEATHER ROUNDUP
NATIONAL WEATHER SERVICE ALBANY NY
100 AM EDT FRI MAY 27 2022

NOTE: "FAIR" INDICATES FEW OR NO CLOUDS BELOW 12,000 FEET WITH NO
SIGNIFICANT WEATHER AND/OR NO OBSTRUCTIONS TO VISIBILITY.


NYZ032-033-038>043-046>054-057>066-NYZ062>081-082-084-270600-
EAST

  
CITY           SKY/WX    TMP DP  RH WIND       PRES   REMARKS
ALBANY         CLOUDY    66  57  72 SE10G20   30.02F                  
GLENS FALLS    CLOUDY    65  56  72 S13G18    30.00F                  
POUGHKEEPSIE   CLOUDY    66  56  70 SE7       30.04F                  
NEWBURGH       CLOUDY    64  57  77 VRB5      30.06F                  
MONTGOMERY     CLOUDY    63  57  81 SW9       30.04F                  
WHITE PLAINS   LGT RAIN  62  59  90 SE5       30.07F                  
ISLIP          CLOUDY    63  63 100 S7        30.09F FOG              
NEW YORK CITY  CLOUDY    64  60  87 S6        30.07F                  
CENTRAL PARK   CLOUDY    65  61  87 VRB3      30.09F                  
$$


SKY/WX - Weather  TMP - Temperature  DP - Dew Point  RH - Humidity
WIND - Wind Direction/Speed PRES - Barometric Pressure VSB - Visibility
WCI - Wind Chill Index E13G22 Wind - East Wind 13 mph/Gusts of 22 mph

Trending Headlines

Pleasantville Radar Loop



Pleasantville Quick Facts


National Two Day Weather Forecast


E-mail the Pleasantville Weather Forecast

Voice your opinion or tell us about page issues...